This is the latest recevied weather packets stored in our database for station/object KBTL-WX. If no packets are shown the sender has not sent any weather packets the latest 10 day(s).
| Time | Temp. | Humidity | Pressure | Rain* | Wind** | Luminosity | Snow |
|---|---|---|---|---|---|---|---|
| 1778061640 | 3.89° C | 71% | 977 hPa | 0 mm | - | - | - |
| 1778060716 | 3.89° C | 68% | 976 hPa | 0 mm | - | - | - |
| 1778059830 | 4.44° C | 68% | 976.5 hPa | 0 mm | - | - | - |
| 1778058915 | 4.44° C | 68% | 976.5 hPa | 0 mm | - | - | - |
| 1778058041 | 5° C | 68% | 976.5 hPa | 0 mm | - | - | - |
| 1778057116 | 5° C | 64% | 975.8 hPa | 0 mm | - | - | - |
| 1778056228 | 5° C | 68% | 976.4 hPa | 0 mm | - | - | - |
| 1778055315 | 5° C | 68% | 976.4 hPa | 0 mm | - | - | - |
| 1778054442 | 5° C | 68% | 976.4 hPa | 0 mm | - | - | - |
| 1778053515 | 5.56° C | 68% | 976.4 hPa | 0 mm | - | - | - |
| 1778052633 | 6.11° C | 68% | 976.4 hPa | 0 mm | - | - | - |
| 1778051715 | 6.11° C | 68% | 976.4 hPa | 0 mm | - | - | - |
| 1778050834 | 6.67° C | 68% | 976.4 hPa | 0 mm | - | - | - |
| 1778049916 | 6.67° C | 67% | 976.4 hPa | 0 mm | - | - | - |
| 1778049030 | 6.11° C | 67% | 976.4 hPa | 0 mm | - | - | - |
| 1778048116 | 6.67° C | 67% | 976.4 hPa | 0 mm | - | - | - |
| 1778047240 | 6.67° C | 67% | 976.4 hPa | 0 mm | - | - | - |
| 1778046316 | 6.67° C | 67% | 976.9 hPa | 0 mm | - | - | - |
| 1778045429 | 7.22° C | 67% | 976.6 hPa | 0 mm | - | - | - |
| 1778044516 | 7.22° C | 67% | 976.5 hPa | 0 mm | - | - | - |
| 1778043642 | 7.22° C | 67% | 976.5 hPa | 0 mm | - | - | - |
| 1778042716 | 7.78° C | 57% | 977.6 hPa | 0 mm | - | - | - |
| 1778041829 | 7.78° C | 61% | 976.9 hPa | 0 mm | - | - | - |
| 1778040916 | 6.67° C | 61% | 976.9 hPa | 0 mm | - | - | - |
| 1778040042 | 7.22° C | 61% | 976.9 hPa | 0 mm | - | - | - |
* Rain latest hour (hover to see other rain measurements)
** Current wind speed in m/s (hover to see current wind gust speed)